NOO120 EKCH-OTHH

Flight info

Callsign NOO120
Flight time 6h 21m
Altitude 410
Route SIMEG Z493 XELOL DCT KELEL DCT PERIT DCT ULMIN DCT ADORU UG80 EKI UL854 MARMA/N0486F370 UL854 KULAR UT39 TOMBI DCT SAFTA L324 LAKTO L560 SILKA M872 BDB Y214 RAPMA/N0483F290 Y214 ASPUS Y432 LADBO T142 LAEEB
Aircraft B772/H-SDE2E3FGHIJ5LORVWXY/LB1D1

Departure

Time 2026-05-03 22:03
Airport Copenhagen Kastrup Airport (EKCH)

Arrival

Time 2026-05-04 04:24
Airport Hamad International Airport (OTHH)
Time Latitude Longitude Altitude Speed Heading
2026-05-03 21:35 55.62737 12.66146 23 ft 0 kts 311°
2026-05-03 21:45 55.62728 12.66164 25 ft 3 kts 313°
2026-05-03 21:45 55.62714 12.66190 26 ft 3 kts 311°
2026-05-03 21:46 55.62702 12.66217 28 ft 3 kts 295°
2026-05-03 21:46 55.62697 12.66240 28 ft 2 kts 237°
2026-05-03 21:46 55.62700 12.66247 28 ft 0 kts 220°
2026-05-03 21:56 55.62699 12.66246 23 ft 1 kts 220°
2026-05-03 21:56 55.62646 12.66167 27 ft 15 kts 215°
2026-05-03 21:56 55.62545 12.66134 24 ft 15 kts 199°
2026-05-03 21:56 55.62480 12.66056 26 ft 8 kts 220°
2026-05-03 21:57 55.62456 12.66002 23 ft 5 kts 237°
2026-05-03 21:57 55.62424 12.65964 21 ft 6 kts 197°
2026-05-03 21:57 55.62380 12.65964 19 ft 6 kts 177°
2026-05-03 21:57 55.62344 12.66007 18 ft 7 kts 126°
2026-05-03 21:58 55.62323 12.66039 17 ft 3 kts 164°
2026-05-03 21:58 55.62309 12.66014 18 ft 3 kts 252°
2026-05-03 21:58 55.62306 12.65973 18 ft 3 kts 264°
2026-05-03 21:58 55.62304 12.65897 20 ft 15 kts 268°
2026-05-03 21:59 55.62299 12.65583 21 ft 32 kts 268°
2026-05-03 21:59 55.62293 12.65317 28 ft 13 kts 268°
2026-05-03 21:59 55.62269 12.65213 29 ft 5 kts 226°
2026-05-03 21:59 55.62237 12.65193 27 ft 5 kts 194°
2026-05-03 22:00 55.62207 12.65171 13 ft 5 kts 209°
2026-05-03 22:00 55.62179 12.65143 28 ft 5 kts 210°
2026-05-03 22:00 55.62121 12.65081 27 ft 17 kts 214°
2026-05-03 22:00 55.61991 12.64926 28 ft 25 kts 213°
2026-05-03 22:01 55.61843 12.64760 26 ft 25 kts 213°
2026-05-03 22:01 55.61713 12.64610 29 ft 8 kts 213°
2026-05-03 22:01 55.61676 12.64559 25 ft 6 kts 225°
2026-05-03 22:01 55.61656 12.64480 28 ft 10 kts 258°
2026-05-03 22:02 55.61648 12.64315 30 ft 17 kts 266°
2026-05-03 22:02 55.61628 12.64089 32 ft 19 kts 242°
2026-05-03 22:02 55.61533 12.63922 28 ft 19 kts 221°
2026-05-03 22:02 55.61273 12.63520 29 ft 97 kts 221°
2026-05-03 22:03 55.60525 12.62367 66 ft 183 kts 222°
2026-05-03 22:03 55.59472 12.60749 1010 ft 203 kts 221°
2026-05-03 22:03 55.58418 12.59136 2241 ft 204 kts 218°
2026-05-03 22:03 55.57262 12.57408 2581 ft 233 kts 219°
2026-05-03 22:04 55.55976 12.55658 3183 ft 239 kts 205°
2026-05-03 22:04 55.54405 12.54712 3933 ft 241 kts 198°
2026-05-03 22:04 55.52801 12.53795 4876 ft 241 kts 200°
2026-05-03 22:04 55.51215 12.52841 5851 ft 241 kts 201°
2026-05-03 22:05 55.49622 12.51874 6763 ft 243 kts 201°
2026-05-03 22:05 55.47980 12.50875 6960 ft 255 kts 201°
2026-05-03 22:05 55.46308 12.49984 6887 ft 247 kts 190°
2026-05-03 22:05 55.44588 12.50283 6889 ft 255 kts 166°
2026-05-03 22:06 55.43028 12.51839 7185 ft 266 kts 147°
2026-05-03 22:06 55.41735 12.54265 7962 ft 281 kts 127°
2026-05-03 22:06 55.40988 12.57531 8699 ft 294 kts 112°
2026-05-03 22:06 55.40453 12.61045 9530 ft 299 kts 111°
2026-05-03 22:07 55.39906 12.64602 10246 ft 305 kts 112°
2026-05-03 22:07 55.39294 12.68325 10521 ft 329 kts 112°
2026-05-03 22:07 55.38615 12.72331 10706 ft 354 kts 112°
2026-05-03 22:07 55.37879 12.76621 10963 ft 377 kts 112°
2026-05-03 22:08 55.37110 12.81104 11597 ft 388 kts 112°
2026-05-03 22:08 55.36324 12.85691 12370 ft 394 kts 111°
2026-05-03 22:08 55.35537 12.90278 13215 ft 398 kts 111°
2026-05-03 22:08 55.34729 12.94959 13988 ft 403 kts 111°
2026-05-03 22:09 55.33903 12.99707 14690 ft 408 kts 111°
2026-05-03 22:09 55.33065 13.04509 15363 ft 413 kts 111°
2026-05-03 22:09 55.32210 13.09381 16020 ft 418 kts 111°
2026-05-03 22:10 55.30482 13.19203 17316 ft 428 kts 111°
2026-05-03 22:10 55.29595 13.24231 17945 ft 433 kts 111°
2026-05-03 22:10 55.28699 13.29305 18508 ft 437 kts 111°
2026-05-03 22:10 55.27794 13.34417 19071 ft 440 kts 111°
2026-05-03 22:11 55.26880 13.39566 19630 ft 443 kts 111°
2026-05-03 22:11 55.25957 13.44746 20178 ft 446 kts 111°
2026-05-03 22:11 55.24927 13.49861 20596 ft 445 kts 119°
2026-05-03 22:11 55.23232 13.54247 20917 ft 437 kts 136°
2026-05-03 22:12 55.21173 13.58213 21272 ft 443 kts 136°
2026-05-03 22:12 55.19095 13.62220 21791 ft 446 kts 136°
2026-05-03 22:12 55.17021 13.66276 22370 ft 448 kts 136°
2026-05-03 22:12 55.14947 13.70385 22890 ft 451 kts 135°
2026-05-03 22:13 55.12869 13.74534 23355 ft 455 kts 135°
2026-05-03 22:13 55.10781 13.78719 23767 ft 459 kts 135°
2026-05-03 22:13 55.08677 13.82938 24206 ft 461 kts 135°
2026-05-03 22:13 55.06562 13.87176 24634 ft 463 kts 135°
2026-05-03 22:14 55.04463 13.91370 25069 ft 465 kts 135°
2026-05-03 22:14 55.02327 13.95627 25481 ft 467 kts 135°
2026-05-03 22:14 55.00180 13.99901 25879 ft 470 kts 135°
2026-05-03 22:14 54.98015 14.04202 26273 ft 473 kts 135°
2026-05-03 22:15 54.95840 14.08514 26670 ft 475 kts 135°
2026-05-03 22:15 54.93647 14.12832 27058 ft 477 kts 136°
2026-05-03 22:15 54.91295 14.16890 27432 ft 476 kts 142°
2026-05-03 22:15 54.88725 14.20514 27775 ft 475 kts 149°
2026-05-03 22:16 54.85986 14.23761 28134 ft 476 kts 150°
2026-05-03 22:16 54.83233 14.26994 28471 ft 479 kts 149°
2026-05-03 22:16 54.80478 14.30283 28799 ft 482 kts 149°
2026-05-03 22:16 54.77752 14.33574 29101 ft 484 kts 149°
2026-05-03 22:17 54.74961 14.36895 29380 ft 486 kts 150°
2026-05-03 22:17 54.72124 14.40128 29676 ft 488 kts 151°
2026-05-03 22:17 54.69269 14.43316 29948 ft 490 kts 151°
2026-05-03 22:17 54.66394 14.46512 30190 ft 491 kts 151°
2026-05-03 22:18 54.63552 14.49678 30487 ft 490 kts 151°
2026-05-03 22:18 54.60688 14.52880 30837 ft 489 kts 151°
2026-05-03 22:18 54.57841 14.56072 31212 ft 488 kts 150°
2026-05-03 22:18 54.54989 14.59270 31533 ft 487 kts 150°
2026-05-03 22:19 54.52143 14.62458 31868 ft 487 kts 150°
2026-05-03 22:19 54.49307 14.65629 32211 ft 486 kts 150°
2026-05-03 22:19 54.46500 14.68763 32545 ft 486 kts 150°
2026-05-03 22:19 54.43656 14.71931 32876 ft 485 kts 150°
2026-05-03 22:20 54.40816 14.75089 33232 ft 484 kts 150°
2026-05-03 22:20 54.37989 14.78228 33572 ft 483 kts 150°
2026-05-03 22:20 54.35165 14.81359 33913 ft 483 kts 150°
2026-05-03 22:20 54.32340 14.84486 34158 ft 483 kts 150°
2026-05-03 22:21 54.29544 14.87575 34410 ft 483 kts 150°
2026-05-03 22:21 54.26718 14.90705 34681 ft 483 kts 149°
2026-05-03 22:21 54.23934 14.93961 34947 ft 484 kts 148°
2026-05-03 22:21 54.21187 14.97305 35199 ft 484 kts 147°
2026-05-03 22:22 54.18459 15.00674 35458 ft 484 kts 147°
2026-05-03 22:22 54.15734 15.04043 35743 ft 483 kts 147°
2026-05-03 22:22 54.13004 15.07397 36009 ft 483 kts 147°
2026-05-03 22:22 54.10269 15.10732 36243 ft 483 kts 147°
2026-05-03 22:23 54.07560 15.14013 36476 ft 483 kts 148°
2026-05-03 22:23 54.04805 15.17335 36743 ft 483 kts 148°
2026-05-03 22:23 54.02062 15.20630 36986 ft 482 kts 148°
2026-05-03 22:23 53.99316 15.23919 37211 ft 482 kts 148°
2026-05-03 22:24 53.96567 15.27207 37449 ft 482 kts 148°
2026-05-03 22:24 53.93823 15.30485 37682 ft 482 kts 148°
2026-05-03 22:24 53.91083 15.33754 37904 ft 482 kts 148°
2026-05-03 22:24 53.88343 15.37018 38096 ft 482 kts 148°
2026-05-03 22:25 53.85627 15.40248 38320 ft 481 kts 148°
2026-05-03 22:25 53.82885 15.43505 38537 ft 481 kts 148°
2026-05-03 22:25 53.80144 15.46755 38705 ft 481 kts 148°
2026-05-03 22:26 53.74641 15.53263 38842 ft 484 kts 148°
2026-05-03 22:26 53.69122 15.59768 38887 ft 487 kts 148°
2026-05-03 22:27 53.63553 15.66312 38892 ft 486 kts 148°
2026-05-03 22:27 53.58029 15.72784 38892 ft 485 kts 148°
2026-05-03 22:28 53.52480 15.79262 38893 ft 484 kts 148°
2026-05-03 22:28 53.46950 15.85697 38892 ft 483 kts 147°
2026-05-03 22:29 53.41421 15.92111 38894 ft 482 kts 148°
2026-05-03 22:29 53.35901 15.98492 38896 ft 482 kts 147°
2026-05-03 22:30 53.30417 16.04812 38895 ft 481 kts 147°
2026-05-03 22:30 53.24889 16.11163 38890 ft 481 kts 147°
2026-05-03 22:31 53.19361 16.17492 38895 ft 482 kts 147°
2026-05-03 22:31 53.13830 16.23806 38906 ft 482 kts 147°
2026-05-03 22:32 53.08284 16.30116 38910 ft 482 kts 147°
2026-05-03 22:32 53.02763 16.36379 38909 ft 482 kts 147°
2026-05-03 22:33 52.97205 16.42663 38912 ft 483 kts 147°
2026-05-03 22:33 52.91642 16.48933 38916 ft 483 kts 147°
2026-05-03 22:34 52.86101 16.55160 38919 ft 483 kts 147°
2026-05-03 22:34 52.80533 16.61396 38918 ft 483 kts 147°
2026-05-03 22:35 52.74995 16.67579 38925 ft 483 kts 147°
2026-05-03 22:35 52.69409 16.73797 38929 ft 483 kts 147°
2026-05-03 22:36 52.63825 16.79992 38937 ft 483 kts 147°
2026-05-03 22:36 52.58273 16.86133 38940 ft 483 kts 147°
2026-05-03 22:37 52.52689 16.92291 38955 ft 483 kts 148°
2026-05-03 22:37 52.47133 16.98400 38936 ft 477 kts 148°
2026-05-03 22:38 52.41659 17.04400 38938 ft 474 kts 148°
2026-05-03 22:38 52.36159 17.10407 38935 ft 473 kts 148°
2026-05-03 22:39 52.30704 17.16348 38947 ft 473 kts 148°
2026-05-03 22:39 52.25211 17.22312 38952 ft 474 kts 148°
2026-05-03 22:40 52.19731 17.28244 38958 ft 476 kts 148°
2026-05-03 22:40 52.14191 17.34224 38963 ft 478 kts 148°
2026-05-03 22:41 52.08628 17.40211 38966 ft 480 kts 148°
2026-05-03 22:41 52.03050 17.46196 38971 ft 480 kts 148°
2026-05-03 22:42 51.97489 17.52144 38969 ft 481 kts 148°
2026-05-03 22:42 51.91887 17.58118 38972 ft 481 kts 148°
2026-05-03 22:43 51.87228 17.63072 38977 ft 481 kts 148°
2026-05-03 22:43 51.80731 17.69961 38976 ft 480 kts 148°
2026-05-03 22:44 51.76075 17.74882 38979 ft 480 kts 148°
2026-05-03 22:44 51.70480 17.80781 38983 ft 479 kts 148°
2026-05-03 22:45 51.64899 17.86646 38988 ft 479 kts 148°
2026-05-03 22:45 51.59306 17.92506 38992 ft 479 kts 148°
2026-05-03 22:46 51.53744 17.98317 39003 ft 479 kts 148°
2026-05-03 22:46 51.48131 18.04163 39007 ft 480 kts 148°
2026-05-03 22:47 51.42521 18.09989 39005 ft 480 kts 148°
2026-05-03 22:47 51.36898 18.15812 39008 ft 481 kts 148°
2026-05-03 22:48 51.31309 18.21582 39014 ft 481 kts 148°
2026-05-03 22:48 51.25667 18.27389 39015 ft 481 kts 148°
2026-05-03 22:49 51.20026 18.33179 39019 ft 482 kts 148°
2026-05-03 22:49 51.14374 18.38962 39020 ft 482 kts 148°
2026-05-03 22:50 51.08755 18.44695 39019 ft 482 kts 148°
2026-05-03 22:50 51.03092 18.50456 39027 ft 483 kts 148°
2026-05-03 22:51 50.97450 18.56179 39033 ft 483 kts 148°
2026-05-03 22:51 50.91774 18.61920 39034 ft 483 kts 148°
2026-05-03 22:52 50.86098 18.67642 39040 ft 483 kts 148°
2026-05-03 22:52 50.80452 18.73319 39042 ft 483 kts 148°
2026-05-03 22:53 50.74768 18.79017 39049 ft 483 kts 148°
2026-05-03 22:53 50.69083 18.84700 39058 ft 483 kts 148°
2026-05-03 22:54 50.63434 18.90330 39067 ft 483 kts 148°
2026-05-03 22:54 50.57744 18.95985 39072 ft 484 kts 148°
2026-05-03 22:55 50.52039 19.01639 39075 ft 484 kts 148°
2026-05-03 22:55 50.46362 19.07247 39075 ft 484 kts 148°
2026-05-03 22:56 50.40650 19.12875 39078 ft 485 kts 148°
2026-05-03 22:56 50.34930 19.18494 39073 ft 485 kts 148°
2026-05-03 22:57 50.29235 19.24072 39069 ft 485 kts 148°
2026-05-03 22:57 50.23505 19.29670 39070 ft 485 kts 148°
2026-05-03 22:58 50.17764 19.35261 39070 ft 485 kts 148°
2026-05-03 22:58 50.12025 19.40835 39071 ft 486 kts 148°
2026-05-03 22:59 50.06317 19.46362 39073 ft 486 kts 148°
2026-05-03 22:59 50.00555 19.51926 39076 ft 486 kts 148°
2026-05-03 23:00 49.94799 19.57469 39078 ft 486 kts 148°
2026-05-03 23:00 49.89066 19.62973 39080 ft 487 kts 148°
2026-05-03 23:01 49.83293 19.68501 39083 ft 487 kts 148°
2026-05-03 23:01 49.77518 19.74014 39093 ft 487 kts 148°
2026-05-03 23:02 49.71765 19.79491 39097 ft 488 kts 148°
2026-05-03 23:02 49.65976 19.84988 39108 ft 488 kts 148°
2026-05-03 23:03 49.60187 19.90468 39112 ft 488 kts 148°
2026-05-03 23:03 49.54394 19.95937 39121 ft 488 kts 148°
2026-05-03 23:04 49.48632 20.01362 39121 ft 488 kts 148°
2026-05-03 23:04 49.42823 20.06815 39124 ft 488 kts 148°
2026-05-03 23:05 49.37010 20.12259 39137 ft 489 kts 148°
2026-05-03 23:05 49.31201 20.17684 39155 ft 489 kts 147°
2026-05-03 23:06 49.25447 20.23243 39156 ft 489 kts 146°
2026-05-03 23:06 49.19752 20.28872 39160 ft 490 kts 146°
2026-05-03 23:07 49.14015 20.34516 39155 ft 489 kts 146°
2026-05-03 23:07 49.08276 20.40118 39162 ft 489 kts 146°
2026-05-03 23:08 49.02557 20.45673 39159 ft 489 kts 146°
2026-05-03 23:08 48.96812 20.51237 39163 ft 489 kts 146°
2026-05-03 23:09 48.91056 20.56798 39158 ft 489 kts 146°
2026-05-03 23:09 48.85332 20.62314 39149 ft 489 kts 146°
2026-05-03 23:10 48.79568 20.67853 39147 ft 489 kts 146°
2026-05-03 23:10 48.73844 20.73338 39152 ft 489 kts 146°
2026-05-03 23:11 48.68074 20.78852 39144 ft 489 kts 146°
2026-05-03 23:11 48.62351 20.84307 39152 ft 489 kts 146°
2026-05-03 23:12 48.56589 20.89783 39150 ft 488 kts 146°
2026-05-03 23:12 48.50823 20.95248 39149 ft 488 kts 146°
2026-05-03 23:13 48.45054 21.00702 39146 ft 488 kts 146°
2026-05-03 23:13 48.39292 21.06134 39144 ft 488 kts 146°
2026-05-03 23:14 48.33569 21.11515 39134 ft 488 kts 146°
2026-05-03 23:14 48.27805 21.16920 39129 ft 488 kts 146°
2026-05-03 23:15 48.22044 21.22307 39123 ft 488 kts 146°
2026-05-03 23:15 48.16278 21.27685 39133 ft 488 kts 146°
2026-05-03 23:16 48.10540 21.33023 39140 ft 488 kts 146°
2026-05-03 23:16 48.04760 21.38385 39142 ft 488 kts 146°
2026-05-03 23:17 47.98979 21.43734 39143 ft 488 kts 146°
2026-05-03 23:17 47.93224 21.49046 39149 ft 488 kts 146°
2026-05-03 23:18 47.87439 21.54370 39149 ft 489 kts 146°
2026-05-03 23:18 47.81635 21.59701 39152 ft 489 kts 146°
2026-05-03 23:19 47.75886 21.64991 39150 ft 489 kts 146°
2026-05-03 23:19 47.70127 21.70387 39150 ft 489 kts 145°
2026-05-03 23:20 47.64377 21.75785 39153 ft 489 kts 145°
2026-05-03 23:20 47.58654 21.81131 39152 ft 488 kts 146°
2026-05-03 23:21 47.52879 21.86501 39153 ft 488 kts 145°
2026-05-03 23:21 47.47114 21.91845 39155 ft 488 kts 146°
2026-05-03 23:22 47.38505 21.99802 39154 ft 488 kts 146°
2026-05-03 23:22 47.32737 22.05116 39152 ft 488 kts 146°
2026-05-03 23:23 47.27003 22.10384 39156 ft 488 kts 146°
2026-05-03 23:23 47.21237 22.15669 39161 ft 488 kts 146°
2026-05-03 23:24 47.15460 22.20949 39165 ft 488 kts 146°
2026-05-03 23:24 47.09684 22.26216 39163 ft 488 kts 146°
2026-05-03 23:25 47.03935 22.31444 39170 ft 488 kts 146°
2026-05-03 23:25 46.98154 22.36687 39174 ft 488 kts 146°
2026-05-03 23:26 46.92366 22.41923 39184 ft 488 kts 146°
2026-05-03 23:26 46.86573 22.47151 39183 ft 488 kts 146°
2026-05-03 23:27 46.80820 22.52328 39191 ft 488 kts 146°
2026-05-03 23:27 46.75030 22.57527 39192 ft 488 kts 146°
2026-05-03 23:28 46.69240 22.62712 39194 ft 488 kts 146°
2026-05-03 23:28 46.63442 22.67890 39198 ft 488 kts 146°
2026-05-03 23:29 46.57651 22.73049 39199 ft 487 kts 146°
2026-05-03 23:29 46.51895 22.78164 39200 ft 487 kts 146°
2026-05-03 23:30 46.46110 22.83293 39196 ft 486 kts 146°
2026-05-03 23:30 46.40320 22.88413 39207 ft 486 kts 146°
2026-05-03 23:31 46.34568 22.93486 39207 ft 486 kts 146°
2026-05-03 23:31 46.29759 22.97719 39200 ft 486 kts 146°
2026-05-03 23:32 46.23963 23.02807 39206 ft 486 kts 146°
2026-05-03 23:32 46.18167 23.07883 39195 ft 486 kts 146°
2026-05-03 23:33 46.12414 23.12910 39200 ft 486 kts 146°
2026-05-03 23:33 46.06608 23.17970 39199 ft 486 kts 146°
2026-05-03 23:34 46.00820 23.23002 39200 ft 486 kts 146°
2026-05-03 23:34 45.95049 23.28007 39197 ft 487 kts 146°
2026-05-03 23:35 45.89241 23.33032 39198 ft 486 kts 146°
2026-05-03 23:35 45.83437 23.38043 39198 ft 487 kts 146°
2026-05-03 23:36 45.77623 23.43062 39207 ft 487 kts 145°
2026-05-03 23:36 45.71851 23.48067 39200 ft 487 kts 145°
2026-05-03 23:37 45.66045 23.53095 39205 ft 486 kts 145°
2026-05-03 23:37 45.60229 23.58118 39203 ft 488 kts 145°
2026-05-03 23:38 45.54442 23.63102 39199 ft 489 kts 145°
2026-05-03 23:38 45.48597 23.68125 39198 ft 490 kts 145°
2026-05-03 23:39 45.42758 23.73124 39198 ft 491 kts 146°
2026-05-03 23:39 45.36879 23.78148 39183 ft 493 kts 146°
2026-05-03 23:40 45.30972 23.83183 39176 ft 494 kts 146°
2026-05-03 23:40 45.25069 23.88204 39184 ft 495 kts 146°
2026-05-03 23:41 45.19195 23.93186 39182 ft 495 kts 146°
2026-05-03 23:41 45.13278 23.98193 39176 ft 495 kts 146°
2026-05-03 23:42 45.07359 24.03190 39177 ft 495 kts 146°
2026-05-03 23:42 45.01437 24.08177 39175 ft 494 kts 146°
2026-05-03 23:43 44.95523 24.13145 39177 ft 494 kts 146°
2026-05-03 23:43 44.89637 24.18079 39180 ft 493 kts 146°
2026-05-03 23:44 44.83732 24.23016 39176 ft 492 kts 146°
2026-05-03 23:44 44.77836 24.27933 39172 ft 491 kts 146°
2026-05-03 23:45 44.71998 24.32789 39173 ft 489 kts 146°
2026-05-03 23:45 44.66141 24.37651 39174 ft 487 kts 146°
2026-05-03 23:46 44.60298 24.42490 39170 ft 485 kts 146°
2026-05-03 23:46 44.54520 24.47264 39176 ft 483 kts 147°
2026-05-03 23:47 44.48727 24.52039 39176 ft 481 kts 147°
2026-05-03 23:47 44.42958 24.56783 39171 ft 480 kts 147°
2026-05-03 23:48 44.37234 24.61480 39173 ft 479 kts 147°
2026-05-03 23:48 44.31473 24.66196 39176 ft 480 kts 147°
2026-05-03 23:49 44.25697 24.70915 39176 ft 481 kts 147°
2026-05-03 23:49 44.19934 24.75611 39180 ft 482 kts 147°
2026-05-03 23:50 44.15104 24.79538 39180 ft 484 kts 147°
2026-05-03 23:50 44.08283 24.85072 39183 ft 485 kts 147°
2026-05-03 23:51 44.02433 24.89805 39169 ft 486 kts 147°
2026-05-03 23:51 43.96612 24.94504 39174 ft 487 kts 147°
2026-05-03 23:52 43.90734 24.99238 39179 ft 487 kts 147°
2026-05-03 23:52 43.84893 25.03932 39179 ft 487 kts 148°
2026-05-03 23:53 43.79013 25.08646 39177 ft 487 kts 148°
2026-05-03 23:53 43.73134 25.13349 39177 ft 487 kts 148°
2026-05-03 23:54 43.67310 25.17998 39175 ft 487 kts 148°
2026-05-03 23:54 43.61429 25.22681 39174 ft 487 kts 148°
2026-05-03 23:55 43.55558 25.27345 39176 ft 487 kts 148°
2026-05-03 23:55 43.49688 25.31999 39177 ft 487 kts 148°
2026-05-03 23:56 43.43807 25.36650 39178 ft 487 kts 148°
2026-05-03 23:56 43.37958 25.41266 39177 ft 487 kts 148°
2026-05-03 23:57 43.32061 25.45909 39170 ft 488 kts 148°
2026-05-03 23:57 43.26156 25.50548 39169 ft 488 kts 148°
2026-05-03 23:58 43.20280 25.55154 39160 ft 489 kts 148°
2026-05-03 23:58 43.14363 25.59781 39161 ft 489 kts 148°
2026-05-03 23:59 43.08460 25.64388 39160 ft 490 kts 149°
2026-05-03 23:59 43.02525 25.69008 39159 ft 491 kts 149°
2026-05-04 00:00 42.96581 25.73624 39167 ft 491 kts 149°
2026-05-04 00:00 42.90659 25.78214 39169 ft 492 kts 149°
2026-05-04 00:01 42.84692 25.82829 39160 ft 492 kts 149°
2026-05-04 00:01 42.78730 25.87429 39170 ft 492 kts 149°
2026-05-04 00:02 42.72762 25.92024 39161 ft 492 kts 149°
2026-05-04 00:02 42.66833 25.96579 39166 ft 492 kts 149°
2026-05-04 00:03 42.60856 26.01160 39148 ft 492 kts 149°
2026-05-04 00:03 42.54877 26.05732 39143 ft 492 kts 149°
2026-05-04 00:04 42.48952 26.10253 39135 ft 492 kts 149°
2026-05-04 00:04 42.42969 26.14809 39133 ft 491 kts 149°
2026-05-04 00:05 42.37042 26.19311 39129 ft 491 kts 150°
2026-05-04 00:05 42.31065 26.23842 39133 ft 491 kts 150°
2026-05-04 00:06 42.25098 26.28356 39126 ft 491 kts 150°
2026-05-04 00:06 42.19154 26.32843 39122 ft 491 kts 150°
2026-05-04 00:07 42.13174 26.37346 39122 ft 491 kts 150°
2026-05-04 00:07 42.07240 26.41806 39115 ft 491 kts 150°
2026-05-04 00:08 42.01263 26.46289 39116 ft 491 kts 150°
2026-05-04 00:08 41.95291 26.50758 39112 ft 491 kts 150°
2026-05-04 00:09 41.89308 26.55226 39109 ft 491 kts 150°
2026-05-04 00:09 41.83546 26.60124 39102 ft 490 kts 144°
2026-05-04 00:10 41.78040 26.65403 39101 ft 490 kts 143°
2026-05-04 00:10 41.72493 26.70705 39097 ft 490 kts 144°
2026-05-04 00:11 41.66916 26.75973 39093 ft 489 kts 144°
2026-05-04 00:11 41.61362 26.81192 39085 ft 489 kts 144°
2026-05-04 00:12 41.55796 26.86415 39084 ft 489 kts 144°
2026-05-04 00:12 41.50215 26.91644 39080 ft 489 kts 144°
2026-05-04 00:13 41.44635 26.96858 39075 ft 489 kts 144°
2026-05-04 00:13 41.39039 27.02066 39075 ft 489 kts 144°
2026-05-04 00:14 41.33460 27.07247 39072 ft 489 kts 144°
2026-05-04 00:14 41.27864 27.12438 39069 ft 489 kts 144°
2026-05-04 00:15 41.22310 27.17580 39068 ft 490 kts 144°
2026-05-04 00:15 41.16713 27.22745 39066 ft 490 kts 144°
2026-05-04 00:16 41.11105 27.27910 39064 ft 490 kts 144°
2026-05-04 00:16 41.05485 27.33077 39060 ft 490 kts 144°
2026-05-04 00:17 40.99915 27.38190 39062 ft 491 kts 144°
2026-05-04 00:17 40.94128 27.43030 39055 ft 492 kts 152°
2026-05-04 00:18 40.87826 27.46575 39047 ft 492 kts 158°
2026-05-04 00:18 40.82509 27.49296 39043 ft 492 kts 158°
2026-05-04 00:19 40.75086 27.53151 39040 ft 493 kts 158°
2026-05-04 00:19 40.69782 27.55940 39041 ft 493 kts 158°
2026-05-04 00:20 40.63397 27.59298 39042 ft 493 kts 158°
2026-05-04 00:20 40.57042 27.62628 39030 ft 494 kts 158°
2026-05-04 00:21 40.50636 27.65980 39030 ft 494 kts 158°
2026-05-04 00:21 40.44249 27.69349 39029 ft 494 kts 158°
2026-05-04 00:22 40.37897 27.72704 39023 ft 495 kts 158°
2026-05-04 00:22 40.31493 27.76075 39024 ft 495 kts 158°
2026-05-04 00:23 40.25077 27.79443 39019 ft 495 kts 158°
2026-05-04 00:23 40.18703 27.82781 39015 ft 496 kts 158°
2026-05-04 00:24 40.12290 27.86135 39009 ft 496 kts 158°
2026-05-04 00:24 40.05915 27.89460 39006 ft 497 kts 158°
2026-05-04 00:25 39.99486 27.92808 38999 ft 497 kts 158°
2026-05-04 00:25 39.93045 27.96156 38999 ft 497 kts 158°
2026-05-04 00:26 39.86606 27.99496 38995 ft 498 kts 158°
2026-05-04 00:26 39.80174 28.02750 38994 ft 498 kts 159°
2026-05-04 00:27 39.73683 28.05975 38993 ft 499 kts 159°
2026-05-04 00:27 39.67187 28.09206 38994 ft 500 kts 159°
2026-05-04 00:28 39.60717 28.12428 38991 ft 500 kts 159°
2026-05-04 00:28 39.54210 28.15665 38986 ft 500 kts 159°
2026-05-04 00:29 39.47728 28.18882 38980 ft 500 kts 159°
2026-05-04 00:29 39.41222 28.22106 38961 ft 501 kts 160°
2026-05-04 00:30 39.34690 28.25335 38947 ft 501 kts 160°
2026-05-04 00:30 39.28175 28.28546 38934 ft 501 kts 160°
2026-05-04 00:31 39.21695 28.31702 38932 ft 500 kts 160°
2026-05-04 00:31 39.15171 28.34866 38916 ft 500 kts 160°
2026-05-04 00:32 39.08648 28.38031 38906 ft 500 kts 160°
2026-05-04 00:32 39.02188 28.41182 38899 ft 499 kts 160°
2026-05-04 00:33 38.92462 28.46109 38888 ft 499 kts 159°
2026-05-04 00:34 38.86030 28.49363 38885 ft 499 kts 160°
2026-05-04 00:34 38.79559 28.52614 38881 ft 499 kts 160°
2026-05-04 00:35 38.73085 28.55858 38876 ft 499 kts 160°
2026-05-04 00:35 38.66606 28.59102 38869 ft 499 kts 160°
2026-05-04 00:36 38.60160 28.62396 38866 ft 498 kts 156°
2026-05-04 00:36 38.54164 28.66747 38854 ft 499 kts 146°
2026-05-04 00:37 38.48508 28.71878 38857 ft 498 kts 145°
2026-05-04 00:37 38.42857 28.77015 38853 ft 498 kts 146°
2026-05-04 00:38 38.37207 28.82089 38846 ft 499 kts 146°
2026-05-04 00:38 38.31506 28.87170 38846 ft 499 kts 146°
2026-05-04 00:39 38.25808 28.92232 38837 ft 500 kts 146°
2026-05-04 00:39 38.20120 28.97278 38834 ft 500 kts 146°
2026-05-04 00:40 38.14398 29.02347 38831 ft 501 kts 146°
2026-05-04 00:40 38.08712 29.07376 38829 ft 501 kts 146°
2026-05-04 00:41 38.02978 29.12436 38824 ft 502 kts 146°
2026-05-04 00:41 37.97222 29.17506 38819 ft 503 kts 147°
2026-05-04 00:42 37.91466 29.22566 38817 ft 503 kts 147°
2026-05-04 00:42 37.85742 29.27588 38805 ft 504 kts 147°
2026-05-04 00:43 37.79956 29.32655 38805 ft 504 kts 147°
2026-05-04 00:43 37.74214 29.37672 38800 ft 505 kts 147°
2026-05-04 00:44 37.68419 29.42727 38810 ft 506 kts 147°
2026-05-04 00:44 37.62605 29.47789 38797 ft 506 kts 147°
2026-05-04 00:45 37.56830 29.52808 38796 ft 506 kts 147°
2026-05-04 00:45 37.51036 29.57834 38797 ft 505 kts 147°
2026-05-04 00:46 37.45233 29.62858 38787 ft 504 kts 148°
2026-05-04 00:46 37.39441 29.67864 38785 ft 504 kts 148°
2026-05-04 00:47 37.33698 29.72817 38789 ft 503 kts 148°
2026-05-04 00:47 37.27929 29.77798 38785 ft 503 kts 148°
2026-05-04 00:48 37.22156 29.82782 38787 ft 503 kts 148°
2026-05-04 00:48 37.16416 29.87728 38784 ft 503 kts 148°
2026-05-04 00:49 37.10625 29.92706 38785 ft 504 kts 148°
2026-05-04 00:49 37.04828 29.97657 38791 ft 504 kts 148°
2026-05-04 00:50 36.99034 30.02589 38777 ft 505 kts 148°
2026-05-04 00:50 36.93204 30.07547 38782 ft 506 kts 149°
2026-05-04 00:51 36.87367 30.12506 38779 ft 507 kts 149°
2026-05-04 00:51 36.81516 30.17467 38779 ft 508 kts 149°
2026-05-04 00:52 36.75692 30.22404 38761 ft 509 kts 149°
2026-05-04 00:52 36.69807 30.27387 38760 ft 510 kts 149°
2026-05-04 00:53 36.63954 30.32335 38767 ft 507 kts 149°
2026-05-04 00:53 36.58125 30.37252 38752 ft 509 kts 149°
2026-05-04 00:54 36.52248 30.42200 38730 ft 509 kts 149°
2026-05-04 00:54 36.46375 30.47135 38733 ft 509 kts 149°
2026-05-04 00:55 36.40499 30.52064 38729 ft 510 kts 149°
2026-05-04 00:55 36.34641 30.56969 38741 ft 510 kts 149°
2026-05-04 00:56 36.28739 30.61901 38738 ft 511 kts 149°
2026-05-04 00:56 36.22832 30.66829 38741 ft 511 kts 149°
2026-05-04 00:57 36.16909 30.71762 38743 ft 512 kts 149°
2026-05-04 00:57 36.11027 30.76652 38750 ft 512 kts 149°
2026-05-04 00:58 36.05005 30.81329 38752 ft 508 kts 156°
2026-05-04 00:58 35.98529 30.84683 38754 ft 501 kts 167°
2026-05-04 00:59 35.91912 30.87180 38752 ft 500 kts 167°
2026-05-04 00:59 35.85254 30.89670 38750 ft 499 kts 167°
2026-05-04 01:00 35.78616 30.92191 38755 ft 498 kts 167°
2026-05-04 01:00 35.72044 30.94708 38750 ft 497 kts 167°
2026-05-04 01:01 35.65447 30.97236 38751 ft 496 kts 167°
2026-05-04 01:01 35.58859 30.99754 38752 ft 495 kts 167°
2026-05-04 01:02 35.52278 31.02262 38760 ft 494 kts 167°
2026-05-04 01:02 35.45753 31.04745 38763 ft 493 kts 168°
2026-05-04 01:03 35.39187 31.07239 38768 ft 493 kts 168°
2026-05-04 01:03 35.32621 31.09728 38775 ft 493 kts 168°
2026-05-04 01:04 35.26053 31.12215 38780 ft 494 kts 168°
2026-05-04 01:04 35.19520 31.14684 38782 ft 494 kts 168°
2026-05-04 01:05 35.12962 31.17159 38787 ft 493 kts 168°
2026-05-04 01:05 35.06400 31.19631 38799 ft 493 kts 168°
2026-05-04 01:06 34.99842 31.22097 38802 ft 492 kts 168°
2026-05-04 01:06 34.93337 31.24539 38804 ft 491 kts 169°
2026-05-04 01:07 34.86803 31.26988 38812 ft 490 kts 169°
2026-05-04 01:07 34.80281 31.29429 38814 ft 489 kts 169°
2026-05-04 01:08 34.73808 31.31847 38816 ft 489 kts 169°
2026-05-04 01:08 34.67302 31.34273 38822 ft 488 kts 169°
2026-05-04 01:09 34.61855 31.36301 38824 ft 488 kts 169°
2026-05-04 01:09 34.55355 31.38717 38833 ft 488 kts 170°
2026-05-04 01:10 34.48886 31.41118 38846 ft 489 kts 170°
2026-05-04 01:10 34.42355 31.43538 38847 ft 490 kts 170°
2026-05-04 01:11 34.35871 31.45937 38855 ft 490 kts 170°
2026-05-04 01:11 34.29330 31.48354 38860 ft 491 kts 171°
2026-05-04 01:12 34.22792 31.50765 38867 ft 491 kts 171°
2026-05-04 01:12 34.16249 31.53175 38870 ft 491 kts 171°
2026-05-04 01:13 34.09738 31.55568 38875 ft 492 kts 171°
2026-05-04 01:13 34.03172 31.57978 38883 ft 492 kts 171°
2026-05-04 01:14 33.96608 31.60383 38887 ft 492 kts 171°
2026-05-04 01:14 33.90081 31.62771 38885 ft 493 kts 171°
2026-05-04 01:15 33.83504 31.65175 38893 ft 494 kts 171°
2026-05-04 01:15 33.76920 31.67574 38899 ft 494 kts 171°
2026-05-04 01:16 33.70323 31.69962 38915 ft 495 kts 172°
2026-05-04 01:16 33.63758 31.72335 38915 ft 495 kts 171°
2026-05-04 01:17 33.57146 31.74724 38913 ft 496 kts 171°
2026-05-04 01:17 33.50533 31.77110 38918 ft 496 kts 171°
2026-05-04 01:18 33.43925 31.79491 38927 ft 496 kts 171°
2026-05-04 01:18 33.37371 31.81987 38940 ft 501 kts 166°
2026-05-04 01:18 33.34159 31.83688 39096 ft 505 kts 163°
2026-05-04 01:19 33.30979 31.85473 39357 ft 503 kts 162°
2026-05-04 01:19 33.27809 31.87270 39630 ft 500 kts 162°
2026-05-04 01:19 33.24711 31.89022 39880 ft 498 kts 163°
2026-05-04 01:19 33.21579 31.90780 40089 ft 497 kts 163°
2026-05-04 01:20 33.18441 31.92527 40265 ft 497 kts 163°
2026-05-04 01:20 33.15302 31.94265 40452 ft 496 kts 163°
2026-05-04 01:20 33.12167 31.95993 40639 ft 495 kts 163°
2026-05-04 01:20 33.09030 31.97719 40820 ft 495 kts 163°
2026-05-04 01:21 33.05898 31.99440 40886 ft 496 kts 163°
2026-05-04 01:21 32.99641 32.02874 40958 ft 498 kts 163°
2026-05-04 01:22 32.93363 32.06323 40952 ft 494 kts 163°
2026-05-04 01:22 32.87131 32.09745 40955 ft 490 kts 164°
2026-05-04 01:23 32.80956 32.13126 40959 ft 486 kts 164°
2026-05-04 01:23 32.74844 32.16463 40963 ft 485 kts 164°
2026-05-04 01:24 32.68692 32.19816 40982 ft 485 kts 164°
2026-05-04 01:24 32.62573 32.23147 40981 ft 487 kts 164°
2026-05-04 01:25 32.56383 32.26513 40983 ft 489 kts 164°
2026-05-04 01:25 32.50217 32.29862 40987 ft 490 kts 165°
2026-05-04 01:26 32.43998 32.33235 40990 ft 491 kts 165°
2026-05-04 01:26 32.37811 32.36587 40991 ft 491 kts 165°
2026-05-04 01:27 32.31585 32.39955 40994 ft 490 kts 165°
2026-05-04 01:27 32.25420 32.43285 40997 ft 489 kts 165°
2026-05-04 01:28 32.19229 32.46623 40994 ft 487 kts 165°
2026-05-04 01:28 32.13087 32.49929 40997 ft 486 kts 165°
2026-05-04 01:29 32.06932 32.53237 41006 ft 484 kts 165°
2026-05-04 01:29 32.00798 32.56529 40999 ft 483 kts 166°
2026-05-04 01:30 31.94679 32.59807 41005 ft 482 kts 166°
2026-05-04 01:30 31.88604 32.63058 41008 ft 481 kts 166°
2026-05-04 01:31 31.82494 32.66322 41017 ft 481 kts 166°
2026-05-04 01:31 31.76436 32.69553 41023 ft 480 kts 166°
2026-05-04 01:32 31.70343 32.72799 41030 ft 480 kts 166°
2026-05-04 01:32 31.64242 32.76044 41027 ft 480 kts 166°
2026-05-04 01:33 31.58187 32.79261 41030 ft 480 kts 166°
2026-05-04 01:33 31.52106 32.82486 41032 ft 480 kts 166°
2026-05-04 01:34 31.46023 32.85708 41032 ft 479 kts 166°
2026-05-04 01:34 31.39934 32.88929 41031 ft 479 kts 166°
2026-05-04 01:35 31.33858 32.92138 41036 ft 479 kts 166°
2026-05-04 01:35 31.27814 32.95327 41052 ft 478 kts 167°
2026-05-04 01:36 31.21741 32.98525 41046 ft 478 kts 167°
2026-05-04 01:36 31.15672 33.01717 41042 ft 478 kts 167°
2026-05-04 01:37 31.09602 33.04905 41039 ft 478 kts 167°
2026-05-04 01:37 31.03572 33.08067 41046 ft 477 kts 167°
2026-05-04 01:38 30.97496 33.11249 41047 ft 477 kts 167°
2026-05-04 01:38 30.91465 33.14404 41054 ft 477 kts 167°
2026-05-04 01:39 30.85399 33.17571 41048 ft 477 kts 167°
2026-05-04 01:39 30.79327 33.20739 41058 ft 477 kts 167°
2026-05-04 01:40 30.73299 33.23878 41061 ft 477 kts 167°
2026-05-04 01:40 30.67242 33.27028 41056 ft 476 kts 167°
2026-05-04 01:41 30.61185 33.30174 41067 ft 476 kts 167°
2026-05-04 01:41 30.55173 33.33292 41073 ft 476 kts 167°
2026-05-04 01:42 30.49116 33.36429 41064 ft 475 kts 167°
2026-05-04 01:42 30.43068 33.39558 41064 ft 475 kts 167°
2026-05-04 01:43 30.37071 33.42656 41071 ft 475 kts 167°
2026-05-04 01:43 30.31025 33.45775 41063 ft 475 kts 167°
2026-05-04 01:44 30.24980 33.48889 41063 ft 474 kts 167°
2026-05-04 01:44 30.18981 33.51976 41066 ft 473 kts 167°
2026-05-04 01:45 30.12957 33.55070 41066 ft 473 kts 167°
2026-05-04 01:45 30.03928 33.59701 41058 ft 473 kts 167°
2026-05-04 01:46 29.97944 33.62766 41059 ft 473 kts 167°
2026-05-04 01:46 29.91928 33.65842 41058 ft 473 kts 167°
2026-05-04 01:47 29.85890 33.68926 41063 ft 473 kts 167°
2026-05-04 01:47 29.79909 33.71977 41062 ft 473 kts 167°
2026-05-04 01:48 29.73884 33.75046 41061 ft 473 kts 167°
2026-05-04 01:48 29.67872 33.78106 41063 ft 473 kts 167°
2026-05-04 01:49 29.61834 33.81172 41060 ft 472 kts 168°
2026-05-04 01:49 29.55735 33.83683 41063 ft 462 kts 173°
2026-05-04 01:50 29.49641 33.85906 41056 ft 462 kts 174°
2026-05-04 01:50 29.43507 33.88164 41062 ft 463 kts 173°
2026-05-04 01:51 29.37375 33.90450 41053 ft 463 kts 173°
2026-05-04 01:51 29.31279 33.92726 41066 ft 462 kts 173°
2026-05-04 01:52 29.25151 33.95008 41054 ft 463 kts 173°
2026-05-04 01:52 29.19023 33.97291 41043 ft 462 kts 173°
2026-05-04 01:53 29.12933 33.99565 41039 ft 462 kts 173°
2026-05-04 01:53 29.06826 34.01845 41041 ft 461 kts 173°
2026-05-04 01:54 29.00729 34.04116 41037 ft 460 kts 173°
2026-05-04 01:54 28.94629 34.06383 41038 ft 460 kts 173°
2026-05-04 01:55 28.88536 34.08645 41024 ft 461 kts 174°
2026-05-04 01:55 28.82431 34.10910 41017 ft 461 kts 174°
2026-05-04 01:56 28.76373 34.13156 41008 ft 461 kts 174°
2026-05-04 01:56 28.70273 34.15413 41006 ft 460 kts 174°
2026-05-04 01:57 28.65198 34.17290 40999 ft 461 kts 174°
2026-05-04 01:57 28.59084 34.19546 40979 ft 461 kts 174°
2026-05-04 01:58 28.52986 34.21796 40993 ft 460 kts 174°
2026-05-04 01:58 28.46883 34.24044 40972 ft 461 kts 174°
2026-05-04 01:59 28.40821 34.26276 40955 ft 460 kts 174°
2026-05-04 01:59 28.34716 34.28519 40970 ft 460 kts 174°
2026-05-04 02:00 28.28657 34.30739 40949 ft 461 kts 174°
2026-05-04 02:00 28.22537 34.32985 40940 ft 461 kts 174°
2026-05-04 02:01 28.16508 34.35614 40940 ft 479 kts 163°
2026-05-04 02:01 28.13658 34.37647 40925 ft 490 kts 156°
2026-05-04 02:01 28.10940 34.40045 40940 ft 500 kts 150°
2026-05-04 02:02 28.08439 34.42869 40941 ft 512 kts 144°
2026-05-04 02:02 28.06056 34.45876 40940 ft 515 kts 142°
2026-05-04 02:02 28.01352 34.52034 40939 ft 517 kts 142°
2026-05-04 02:03 27.96662 34.58139 40933 ft 517 kts 142°
2026-05-04 02:03 27.91899 34.64228 40928 ft 516 kts 143°
2026-05-04 02:04 27.87099 34.70309 40925 ft 516 kts 143°
2026-05-04 02:04 27.82343 34.76322 40924 ft 516 kts 143°
2026-05-04 02:05 27.77556 34.82373 40921 ft 516 kts 143°
2026-05-04 02:05 27.72777 34.88409 40920 ft 515 kts 143°
2026-05-04 02:06 27.67993 34.94442 40915 ft 515 kts 143°
2026-05-04 02:06 27.63244 35.00422 40918 ft 514 kts 143°
2026-05-04 02:07 27.58467 35.06430 40915 ft 513 kts 143°
2026-05-04 02:07 27.53686 35.12433 40909 ft 513 kts 143°
2026-05-04 02:08 27.48950 35.18372 40915 ft 512 kts 143°
2026-05-04 02:08 27.44180 35.24345 40913 ft 512 kts 143°
2026-05-04 02:09 27.39412 35.30306 40912 ft 512 kts 143°
2026-05-04 02:09 27.34646 35.36257 40919 ft 511 kts 143°
2026-05-04 02:10 27.29879 35.42201 40916 ft 511 kts 143°
2026-05-04 02:10 27.25136 35.48108 40912 ft 511 kts 143°
2026-05-04 02:11 27.20369 35.54036 40906 ft 511 kts 143°
2026-05-04 02:11 27.15592 35.59968 40905 ft 510 kts 143°
2026-05-04 02:12 27.10854 35.65844 40903 ft 510 kts 143°
2026-05-04 02:12 27.06081 35.71754 40907 ft 510 kts 143°
2026-05-04 02:13 27.01323 35.77638 40906 ft 510 kts 143°
2026-05-04 02:13 26.96550 35.83533 40900 ft 510 kts 143°
2026-05-04 02:14 26.91818 35.89371 40898 ft 509 kts 143°
2026-05-04 02:14 26.87043 35.95252 40904 ft 509 kts 143°
2026-05-04 02:15 26.82275 36.01117 40905 ft 508 kts 143°
2026-05-04 02:15 26.77539 36.06935 40898 ft 507 kts 143°
2026-05-04 02:16 26.72772 36.12783 40900 ft 507 kts 143°
2026-05-04 02:16 26.68010 36.18616 40895 ft 506 kts 143°
2026-05-04 02:17 26.63261 36.24428 40895 ft 506 kts 143°
2026-05-04 02:17 26.58513 36.30229 40887 ft 506 kts 143°
2026-05-04 02:18 26.53782 36.36001 40904 ft 505 kts 143°
2026-05-04 02:18 26.49034 36.41787 40882 ft 505 kts 143°
2026-05-04 02:19 26.44284 36.47568 40881 ft 504 kts 143°
2026-05-04 02:19 26.39532 36.53344 40876 ft 504 kts 143°
2026-05-04 02:20 26.34792 36.59099 40880 ft 503 kts 143°
2026-05-04 02:20 26.30082 36.64808 40879 ft 502 kts 143°
2026-05-04 02:21 26.25348 36.70539 40882 ft 502 kts 143°
2026-05-04 02:21 26.20614 36.76262 40886 ft 502 kts 143°
2026-05-04 02:22 26.15900 36.81955 40888 ft 502 kts 143°
2026-05-04 02:22 26.11160 36.87671 40894 ft 502 kts 143°
2026-05-04 02:23 26.06411 36.93392 40890 ft 502 kts 143°
2026-05-04 02:23 26.01697 36.99062 40899 ft 502 kts 143°
2026-05-04 02:24 25.96948 37.04769 40903 ft 502 kts 143°
2026-05-04 02:24 25.92189 37.10480 40898 ft 503 kts 143°
2026-05-04 02:25 25.87462 37.16147 40903 ft 503 kts 143°
2026-05-04 02:25 25.82697 37.21867 40910 ft 505 kts 141°
2026-05-04 02:26 25.78481 37.28200 40905 ft 521 kts 129°
2026-05-04 02:26 25.74953 37.35283 40917 ft 525 kts 127°
2026-05-04 02:27 25.71483 37.42422 40925 ft 524 kts 127°
2026-05-04 02:27 25.67983 37.49513 40931 ft 522 kts 127°
2026-05-04 02:28 25.64490 37.56508 40926 ft 521 kts 128°
2026-05-04 02:28 25.60978 37.63502 40967 ft 517 kts 128°
2026-05-04 02:29 25.57456 37.70512 40933 ft 521 kts 128°
2026-05-04 02:29 25.53916 37.77555 40934 ft 524 kts 127°
2026-05-04 02:30 25.50382 37.84579 40923 ft 526 kts 127°
2026-05-04 02:30 25.46816 37.91657 40923 ft 527 kts 127°
2026-05-04 02:31 25.43232 37.98757 40911 ft 528 kts 127°
2026-05-04 02:31 25.39646 38.05857 40921 ft 528 kts 127°
2026-05-04 02:32 25.36057 38.12947 40916 ft 527 kts 127°
2026-05-04 02:32 25.32468 38.20024 40915 ft 527 kts 127°
2026-05-04 02:33 25.28899 38.27051 40914 ft 528 kts 127°
2026-05-04 02:33 25.25300 38.34128 40913 ft 528 kts 128°
2026-05-04 02:34 25.21693 38.41210 40920 ft 528 kts 128°
2026-05-04 02:34 25.18093 38.48271 40927 ft 527 kts 128°
2026-05-04 02:35 25.14505 38.55293 40929 ft 527 kts 127°
2026-05-04 02:35 25.10894 38.62353 40935 ft 527 kts 127°
2026-05-04 02:36 25.07280 38.69413 40934 ft 527 kts 127°
2026-05-04 02:36 25.03670 38.76456 40942 ft 527 kts 127°
2026-05-04 02:37 25.00079 38.83453 40938 ft 526 kts 127°
2026-05-04 02:37 24.96472 38.90469 40938 ft 524 kts 127°
2026-05-04 02:38 24.92886 38.97404 40953 ft 522 kts 128°
2026-05-04 02:38 24.89278 39.04342 40971 ft 521 kts 128°
2026-05-04 02:39 24.85677 39.11265 40973 ft 520 kts 127°
2026-05-04 02:39 24.82084 39.18169 40966 ft 519 kts 127°
2026-05-04 02:40 24.78514 39.25020 40970 ft 518 kts 127°
2026-05-04 02:40 24.74923 39.31901 40976 ft 517 kts 127°
2026-05-04 02:41 24.71338 39.38764 40986 ft 518 kts 127°
2026-05-04 02:41 24.67742 39.45640 40991 ft 518 kts 127°
2026-05-04 02:42 24.64160 39.52479 41023 ft 519 kts 127°
2026-05-04 02:42 24.60552 39.59362 41011 ft 518 kts 127°
2026-05-04 02:43 24.56992 39.66278 41018 ft 523 kts 122°
2026-05-04 02:43 24.54514 39.73881 41026 ft 535 kts 109°
2026-05-04 02:44 24.53421 39.81988 41018 ft 542 kts 100°
2026-05-04 02:44 24.52735 39.90254 41009 ft 543 kts 99°
2026-05-04 02:45 24.52141 39.97125 41010 ft 542 kts 100°
2026-05-04 02:45 24.51361 40.05368 41004 ft 542 kts 100°
2026-05-04 02:46 24.50552 40.13585 40998 ft 541 kts 101°
2026-05-04 02:46 24.49741 40.21802 40994 ft 540 kts 101°
2026-05-04 02:47 24.48940 40.29934 40996 ft 539 kts 101°
2026-05-04 02:47 24.48129 40.38127 40996 ft 538 kts 101°
2026-05-04 02:48 24.47315 40.46296 40998 ft 537 kts 101°
2026-05-04 02:48 24.46503 40.54409 40992 ft 536 kts 101°
2026-05-04 02:49 24.45683 40.62564 40997 ft 536 kts 101°
2026-05-04 02:49 24.44867 40.70691 40998 ft 535 kts 101°
2026-05-04 02:50 24.44056 40.78761 40999 ft 534 kts 101°
2026-05-04 02:50 24.43237 40.86852 41003 ft 534 kts 101°
2026-05-04 02:51 24.42412 40.94960 41004 ft 533 kts 101°
2026-05-04 02:51 24.41585 41.03052 41004 ft 533 kts 101°
2026-05-04 02:52 24.40756 41.11081 41006 ft 533 kts 101°
2026-05-04 02:52 24.39902 41.19173 41016 ft 533 kts 101°
2026-05-04 02:53 24.39045 41.27256 41011 ft 533 kts 101°
2026-05-04 02:53 24.38185 41.35341 41016 ft 533 kts 101°
2026-05-04 02:54 24.37328 41.43370 41023 ft 533 kts 101°
2026-05-04 02:54 24.36462 41.51444 41020 ft 533 kts 101°
2026-05-04 02:55 24.35154 41.63555 41017 ft 533 kts 101°
2026-05-04 02:56 24.34283 41.71574 41017 ft 532 kts 101°
2026-05-04 02:56 24.33401 41.79634 41017 ft 532 kts 102°
2026-05-04 02:57 24.31886 41.87515 41024 ft 525 kts 111°
2026-05-04 02:57 24.29810 41.95205 41017 ft 525 kts 112°
2026-05-04 02:58 24.27734 42.02826 41018 ft 525 kts 111°
2026-05-04 02:58 24.25684 42.10516 41016 ft 526 kts 111°
2026-05-04 02:59 24.23648 42.18224 41020 ft 526 kts 111°
2026-05-04 02:59 24.21611 42.25927 41020 ft 526 kts 111°
2026-05-04 03:00 24.19565 42.33632 41018 ft 527 kts 111°
2026-05-04 03:00 24.17525 42.41290 41025 ft 527 kts 111°
2026-05-04 03:01 24.15470 42.48985 41022 ft 526 kts 111°
2026-05-04 03:01 24.13408 42.56694 41024 ft 526 kts 111°
2026-05-04 03:02 24.11345 42.64388 41024 ft 526 kts 111°
2026-05-04 03:02 24.09295 42.72020 41038 ft 525 kts 111°
2026-05-04 03:03 24.07229 42.79695 41030 ft 525 kts 111°
2026-05-04 03:03 24.05162 42.87357 41035 ft 524 kts 111°
2026-05-04 03:04 24.03102 42.94980 41038 ft 523 kts 111°
2026-05-04 03:04 24.01038 43.02613 41030 ft 522 kts 111°
2026-05-04 03:05 23.98976 43.10223 41033 ft 521 kts 111°
2026-05-04 03:05 23.96929 43.17761 41047 ft 520 kts 111°
2026-05-04 03:06 23.94865 43.25344 41045 ft 519 kts 111°
2026-05-04 03:06 23.92802 43.32909 41049 ft 518 kts 111°
2026-05-04 03:07 23.90749 43.40422 41039 ft 518 kts 111°
2026-05-04 03:07 23.88683 43.47966 41040 ft 517 kts 111°
2026-05-04 03:08 23.86615 43.55501 41038 ft 517 kts 111°
2026-05-04 03:08 23.84545 43.63029 41033 ft 516 kts 111°
2026-05-04 03:09 23.82487 43.70500 41030 ft 516 kts 111°
2026-05-04 03:09 23.80411 43.78018 41025 ft 517 kts 111°
2026-05-04 03:10 23.78339 43.85529 41021 ft 517 kts 110°
2026-05-04 03:10 23.76952 43.93284 41018 ft 524 kts 98°
2026-05-04 03:11 23.76393 44.01230 41021 ft 525 kts 97°
2026-05-04 03:11 23.75875 44.09160 41012 ft 526 kts 97°
2026-05-04 03:12 23.75302 44.17147 41010 ft 527 kts 98°
2026-05-04 03:12 23.74697 44.25115 41012 ft 527 kts 98°
2026-05-04 03:13 23.74087 44.33061 41008 ft 527 kts 98°
2026-05-04 03:13 23.73473 44.41052 41009 ft 528 kts 98°
2026-05-04 03:14 23.72856 44.49043 41001 ft 527 kts 98°
2026-05-04 03:14 23.72241 44.56971 41009 ft 527 kts 98°
2026-05-04 03:15 23.71616 44.64972 41005 ft 526 kts 98°
2026-05-04 03:15 23.70994 44.72872 41005 ft 525 kts 98°
2026-05-04 03:16 23.70365 44.80804 41007 ft 524 kts 98°
2026-05-04 03:16 23.69735 44.88717 41003 ft 523 kts 98°
2026-05-04 03:17 23.69097 44.96630 41008 ft 522 kts 98°
2026-05-04 03:17 23.68460 45.04477 41009 ft 522 kts 98°
2026-05-04 03:18 23.67816 45.12371 41008 ft 522 kts 98°
2026-05-04 03:18 23.67168 45.20272 41000 ft 522 kts 98°
2026-05-04 03:19 23.66520 45.28129 41002 ft 523 kts 98°
2026-05-04 03:19 23.65865 45.36049 41006 ft 523 kts 98°
2026-05-04 03:20 23.65205 45.43975 40998 ft 524 kts 98°
2026-05-04 03:20 23.64543 45.51876 40992 ft 525 kts 98°
2026-05-04 03:21 23.63875 45.59809 40987 ft 525 kts 98°
2026-05-04 03:21 23.63203 45.67744 40993 ft 525 kts 98°
2026-05-04 03:22 23.62527 45.75686 40983 ft 525 kts 98°
2026-05-04 03:22 23.61852 45.83575 40977 ft 524 kts 98°
2026-05-04 03:23 23.61171 45.91502 40972 ft 524 kts 98°
2026-05-04 03:23 23.60487 45.99410 40982 ft 523 kts 98°
2026-05-04 03:24 23.59800 46.07305 40985 ft 522 kts 98°
2026-05-04 03:24 23.59115 46.15138 40981 ft 521 kts 98°
2026-05-04 03:25 23.58422 46.23011 40982 ft 521 kts 98°
2026-05-04 03:25 23.57725 46.30872 40981 ft 520 kts 98°
2026-05-04 03:26 23.57027 46.38727 40985 ft 519 kts 98°
2026-05-04 03:26 23.56328 46.46532 40988 ft 519 kts 98°
2026-05-04 03:27 23.55622 46.54369 40989 ft 519 kts 98°
2026-05-04 03:27 23.54903 46.62198 40985 ft 519 kts 98°
2026-05-04 03:28 23.54177 46.70031 40982 ft 518 kts 98°
2026-05-04 03:28 23.53455 46.77799 40981 ft 519 kts 98°
2026-05-04 03:29 23.52723 46.85641 40970 ft 519 kts 98°
2026-05-04 03:29 23.51988 46.93470 40968 ft 519 kts 98°
2026-05-04 03:30 23.51253 47.01264 40965 ft 519 kts 98°
2026-05-04 03:30 23.50511 47.09087 40963 ft 519 kts 98°
2026-05-04 03:31 23.49768 47.16877 40962 ft 518 kts 98°
2026-05-04 03:31 23.49018 47.24697 40955 ft 518 kts 98°
2026-05-04 03:32 23.48265 47.32514 40950 ft 518 kts 98°
2026-05-04 03:32 23.47509 47.40322 40950 ft 518 kts 98°
2026-05-04 03:33 23.46753 47.48086 40944 ft 518 kts 98°
2026-05-04 03:33 23.46116 47.54602 40940 ft 518 kts 98°
2026-05-04 03:34 23.45233 47.63671 40936 ft 517 kts 98°
2026-05-04 03:34 23.44471 47.71465 40934 ft 517 kts 98°
2026-05-04 03:35 23.43829 47.77997 40928 ft 517 kts 98°
2026-05-04 03:35 23.43063 47.85755 40922 ft 518 kts 98°
2026-05-04 03:36 23.42287 47.93569 40918 ft 518 kts 98°
2026-05-04 03:36 23.41510 48.01356 40912 ft 518 kts 98°
2026-05-04 03:37 23.40732 48.09114 40909 ft 518 kts 98°
2026-05-04 03:37 23.39945 48.16918 40910 ft 518 kts 98°
2026-05-04 03:38 23.39154 48.24724 40902 ft 518 kts 98°
2026-05-04 03:38 23.38368 48.32455 40900 ft 518 kts 98°
2026-05-04 03:39 23.37873 48.40297 40897 ft 518 kts 94°
2026-05-04 03:39 23.37602 48.48141 40895 ft 518 kts 94°
2026-05-04 03:40 23.37325 48.55994 40889 ft 518 kts 94°
2026-05-04 03:40 23.37014 48.63797 40888 ft 518 kts 94°
2026-05-04 03:41 23.36687 48.71642 40885 ft 518 kts 94°
2026-05-04 03:41 23.36359 48.79448 40886 ft 518 kts 94°
2026-05-04 03:42 23.36027 48.87290 40879 ft 518 kts 94°
2026-05-04 03:42 23.35692 48.95132 40881 ft 517 kts 94°
2026-05-04 03:43 23.35356 49.02915 40878 ft 517 kts 94°
2026-05-04 03:43 23.35014 49.10734 40876 ft 517 kts 94°
2026-05-04 03:44 23.34664 49.18567 40873 ft 517 kts 94°
2026-05-04 03:44 23.34313 49.26337 40875 ft 517 kts 94°
2026-05-04 03:45 23.33956 49.34172 40873 ft 517 kts 94°
2026-05-04 03:45 23.33598 49.41935 40872 ft 516 kts 94°
2026-05-04 03:46 23.33235 49.49750 40870 ft 516 kts 94°
2026-05-04 03:46 23.32868 49.57559 40868 ft 516 kts 94°
2026-05-04 03:47 23.32499 49.65309 40870 ft 516 kts 94°
2026-05-04 03:47 23.32125 49.73102 40868 ft 515 kts 94°
2026-05-04 03:48 23.31747 49.80902 40870 ft 515 kts 94°
2026-05-04 03:48 23.31367 49.88644 40868 ft 515 kts 94°
2026-05-04 03:49 23.30981 49.96435 40868 ft 515 kts 94°
2026-05-04 03:49 23.30592 50.04215 40869 ft 514 kts 94°
2026-05-04 03:50 23.30782 50.11895 40860 ft 512 kts 73°
2026-05-04 03:50 23.32115 50.15475 40877 ft 509 kts 58°
2026-05-04 03:50 23.34156 50.18599 40862 ft 505 kts 44°
2026-05-04 03:51 23.39249 50.23826 40870 ft 504 kts 40°
2026-05-04 03:51 23.44340 50.29043 40872 ft 508 kts 41°
2026-05-04 03:52 23.49459 50.34392 40874 ft 511 kts 41°
2026-05-04 03:52 23.54585 50.39795 40871 ft 513 kts 41°
2026-05-04 03:53 23.59696 50.45193 40867 ft 513 kts 41°
2026-05-04 03:53 23.64826 50.50611 40863 ft 513 kts 41°
2026-05-04 03:54 23.69952 50.56028 40862 ft 512 kts 41°
2026-05-04 03:54 23.75037 50.61406 40858 ft 511 kts 41°
2026-05-04 03:55 23.80154 50.66826 40855 ft 510 kts 41°
2026-05-04 03:55 23.85212 50.72188 40860 ft 509 kts 41°
2026-05-04 03:56 23.90296 50.77585 40855 ft 508 kts 41°
2026-05-04 03:56 23.95369 50.82976 40854 ft 508 kts 41°
2026-05-04 03:57 24.00452 50.88384 40859 ft 508 kts 41°
2026-05-04 03:57 24.05515 50.93778 40856 ft 508 kts 41°
2026-05-04 03:58 24.13084 51.01853 40850 ft 509 kts 41°
2026-05-04 03:58 24.18167 51.07283 40848 ft 510 kts 41°
2026-05-04 03:59 24.23254 51.12724 40850 ft 510 kts 41°
2026-05-04 03:59 24.25799 51.15449 40559 ft 516 kts 41°
2026-05-04 03:59 24.28386 51.18220 39753 ft 520 kts 41°
2026-05-04 04:00 24.30965 51.20985 39028 ft 518 kts 41°
2026-05-04 04:00 24.33511 51.23716 38219 ft 518 kts 41°
2026-05-04 04:00 24.36115 51.26457 37322 ft 518 kts 40°
2026-05-04 04:00 24.38744 51.29168 36441 ft 518 kts 40°
2026-05-04 04:01 24.41381 51.31873 35572 ft 518 kts 40°
2026-05-04 04:01 24.44030 51.34596 34538 ft 523 kts 40°
2026-05-04 04:01 24.46694 51.37352 33389 ft 528 kts 40°
2026-05-04 04:01 24.49355 51.40097 32177 ft 531 kts 39°
2026-05-04 04:02 24.52206 51.42667 30952 ft 531 kts 33°
2026-05-04 04:02 24.55250 51.44958 29896 ft 527 kts 28°
2026-05-04 04:02 24.58425 51.46918 28886 ft 518 kts 22°
2026-05-04 04:02 24.61733 51.48245 28025 ft 499 kts
2026-05-04 04:03 24.65136 51.48487 27269 ft 483 kts 352°
2026-05-04 04:03 24.68378 51.47774 26505 ft 470 kts 339°
2026-05-04 04:03 24.71381 51.46438 25705 ft 462 kts 331°
2026-05-04 04:03 24.74111 51.44692 24879 ft 456 kts 322°
2026-05-04 04:04 24.76367 51.42331 24083 ft 444 kts 308°
2026-05-04 04:04 24.78292 51.39690 23292 ft 441 kts 307°
2026-05-04 04:04 24.80203 51.37056 22423 ft 438 kts 307°
2026-05-04 04:04 24.82124 51.34470 21635 ft 434 kts 308°
2026-05-04 04:05 24.84052 51.31934 20881 ft 430 kts 309°
2026-05-04 04:05 24.85974 51.29428 20138 ft 425 kts 309°
2026-05-04 04:05 24.87978 51.27085 19441 ft 419 kts 319°
2026-05-04 04:05 24.90459 51.25433 18751 ft 413 kts 334°
2026-05-04 04:06 24.93095 51.24168 18082 ft 412 kts 335°
2026-05-04 04:06 24.95718 51.22893 17327 ft 411 kts 334°
2026-05-04 04:06 24.98287 51.21620 16649 ft 408 kts 334°
2026-05-04 04:06 25.00861 51.20328 16038 ft 403 kts 334°
2026-05-04 04:07 25.03384 51.19050 15543 ft 396 kts 334°
2026-05-04 04:07 25.05865 51.17789 15027 ft 389 kts 334°
2026-05-04 04:07 25.08318 51.16540 14462 ft 386 kts 334°
2026-05-04 04:07 25.10739 51.15307 13880 ft 383 kts 334°
2026-05-04 04:08 25.13160 51.14074 13263 ft 380 kts 334°
2026-05-04 04:08 25.15512 51.12877 12685 ft 376 kts 335°
2026-05-04 04:08 25.17953 51.11983 11926 ft 370 kts 351°
2026-05-04 04:08 25.20533 51.12097 11274 ft 373 kts 11°
2026-05-04 04:09 25.22910 51.13153 11041 ft 364 kts 29°
2026-05-04 04:09 25.24829 51.14892 10939 ft 351 kts 46°
2026-05-04 04:09 25.26158 51.17086 10856 ft 340 kts 61°
2026-05-04 04:09 25.26950 51.19501 10759 ft 329 kts 77°
2026-05-04 04:10 25.27087 51.21971 10659 ft 315 kts 88°
2026-05-04 04:10 25.27072 51.24320 10533 ft 305 kts 88°
2026-05-04 04:10 25.26895 51.26628 10295 ft 300 kts 99°
2026-05-04 04:10 25.26416 51.28858 10085 ft 295 kts 102°
2026-05-04 04:11 25.25915 51.31031 10032 ft 290 kts 102°
2026-05-04 04:11 25.25420 51.33208 9909 ft 292 kts 101°
2026-05-04 04:11 25.24941 51.35365 9597 ft 293 kts 101°
2026-05-04 04:11 25.24462 51.37566 9206 ft 295 kts 101°
2026-05-04 04:12 25.23988 51.39765 8869 ft 294 kts 101°
2026-05-04 04:12 25.23518 51.41961 8525 ft 293 kts 101°
2026-05-04 04:12 25.23050 51.44147 8210 ft 292 kts 101°
2026-05-04 04:12 25.22565 51.46315 7884 ft 287 kts 106°
2026-05-04 04:13 25.21543 51.48218 7390 ft 295 kts 136°
2026-05-04 04:13 25.19837 51.49432 7069 ft 290 kts 158°
2026-05-04 04:13 25.17958 51.50249 6737 ft 290 kts 160°
2026-05-04 04:13 25.16079 51.51052 6458 ft 289 kts 160°
2026-05-04 04:14 25.14234 51.51852 6198 ft 287 kts 160°
2026-05-04 04:14 25.12379 51.52663 5916 ft 286 kts 160°
2026-05-04 04:14 25.10531 51.53474 5616 ft 285 kts 160°
2026-05-04 04:14 25.08692 51.54283 5334 ft 284 kts 160°
2026-05-04 04:15 25.06878 51.55081 5040 ft 283 kts 160°
2026-05-04 04:15 25.05051 51.55886 4763 ft 282 kts 160°
2026-05-04 04:15 25.03225 51.56689 4490 ft 281 kts 160°
2026-05-04 04:15 25.01415 51.57485 4324 ft 276 kts 160°
2026-05-04 04:16 24.99659 51.58257 4207 ft 267 kts 160°
2026-05-04 04:16 24.97954 51.59001 4081 ft 260 kts 161°
2026-05-04 04:16 24.96289 51.59690 3867 ft 257 kts 161°
2026-05-04 04:16 24.94696 51.60540 3529 ft 256 kts 140°
2026-05-04 04:17 24.93645 51.62079 3308 ft 250 kts 108°
2026-05-04 04:17 24.93440 51.63931 3249 ft 242 kts 77°
2026-05-04 04:17 24.94052 51.65615 3202 ft 236 kts 49°
2026-05-04 04:17 24.95258 51.66823 3142 ft 235 kts 26°
2026-05-04 04:18 24.96762 51.67425 3083 ft 226 kts 10°
2026-05-04 04:18 24.98253 51.67759 3043 ft 215 kts
2026-05-04 04:18 24.99715 51.68062 2993 ft 214 kts
2026-05-04 04:18 25.01187 51.68374 2932 ft 214 kts
2026-05-04 04:19 25.02643 51.68693 2879 ft 213 kts
2026-05-04 04:19 25.04095 51.69019 2819 ft 212 kts
2026-05-04 04:19 25.05542 51.69347 2764 ft 212 kts
2026-05-04 04:19 25.06986 51.69675 2713 ft 212 kts
2026-05-04 04:20 25.08436 51.69978 2650 ft 209 kts
2026-05-04 04:20 25.09835 51.69657 2591 ft 204 kts 335°
2026-05-04 04:20 25.11103 51.69053 2571 ft 196 kts 336°
2026-05-04 04:20 25.12350 51.68499 2503 ft 190 kts 337°
2026-05-04 04:21 25.13577 51.67959 2418 ft 191 kts 337°
2026-05-04 04:21 25.14824 51.67410 2173 ft 192 kts 337°
2026-05-04 04:21 25.16020 51.66882 1943 ft 177 kts 338°
2026-05-04 04:21 25.17133 51.66393 1703 ft 165 kts 337°
2026-05-04 04:22 25.18150 51.65945 1531 ft 153 kts 336°
2026-05-04 04:22 25.19110 51.65521 1328 ft 148 kts 337°
2026-05-04 04:22 25.20066 51.65100 1131 ft 148 kts 337°
2026-05-04 04:22 25.21018 51.64681 944 ft 146 kts 336°
2026-05-04 04:23 25.21973 51.64256 787 ft 149 kts 335°
2026-05-04 04:23 25.22942 51.63802 670 ft 150 kts 336°
2026-05-04 04:23 25.23908 51.63372 419 ft 149 kts 339°
2026-05-04 04:23 25.24858 51.62986 244 ft 142 kts 335°
2026-05-04 04:24 25.25465 51.62708 106 ft 142 kts 336°
2026-05-04 04:24 25.26579 51.62222 26 ft 103 kts 339°
2026-05-04 04:24 25.26952 51.62060 27 ft 67 kts 338°
2026-05-04 04:24 25.27250 51.61926 27 ft 38 kts 332°
2026-05-04 04:25 25.27436 51.61763 28 ft 24 kts 308°
2026-05-04 04:25 25.27455 51.61726 27 ft 0 kts 289°
2026-05-04 04:26 25.27463 51.61707 27 ft 6 kts 303°
2026-05-04 04:26 25.27509 51.61655 27 ft 12 kts 314°
2026-05-04 04:27 25.27549 51.61574 26 ft 13 kts 269°
2026-05-04 04:27 25.27535 51.61482 27 ft 11 kts 251°
2026-05-04 04:27 25.27494 51.61405 26 ft 12 kts 246°
2026-05-04 04:27 25.27463 51.61323 26 ft 12 kts 249°
2026-05-04 04:28 25.27431 51.61231 26 ft 19 kts 249°
2026-05-04 04:28 25.27365 51.61090 26 ft 21 kts 216°
2026-05-04 04:28 25.27223 51.61081 26 ft 21 kts 170°
2026-05-04 04:28 25.27088 51.61115 27 ft 15 kts 161°
2026-05-04 04:29 25.27076 51.61120 27 ft 0 kts 160°